Location: Central Falls
(41.8900°N, 71.3929°W)
Time: 21:22:08
(UTC+00:00)

Courier 1B Rocket - Pass Details

Date: 10 December 2023
Orbit: 920 x 1202 km, 28.2° (Epoch: 04 March)

Event Time Altitude Azimuth Distance (km) Brightness Sun altitude
Rises 14:29:55 0° 225° (SW) 3,944 8.4 18.7°
Reaches altitude 10° 14:33:36 10° 209° (SSW) 2,935 8.0 19.1°
Maximum altitude 14:38:28 20° 166° (SSE) 2,235 8.9 19.5°
Drops below altitude 10° 14:43:08 10° 122° (ESE) 2,792 8.6 19.9°
Sets 14:46:30 0° 106° (ESE) 3,693 8.7 20.2°
